,,PA_Meas_PMT16A,,PR_Meas_QMR101_102,,RH_Meas_QMH101,,SR_Meas_QMS101,,TA_Meas_QMH101,,GenWind,,GenWind,
time,status,PA,status,PR,status,RH,status,SR,status,TA,status,DirAvg,status,SpdAvg,
2014-04-14, 06:50:04,VALID,918.013,VALID,0,VALID,94.8048,VALID,43.4062,VALID,18.3589,VALID,121,VALID,0.242578,
2014-04-14, 06:51:04,VALID,918.056,VALID,0,VALID,94.8963,VALID,47.0592,VALID,18.3979,VALID,121,VALID,0,
2014-04-14, 06:52:04,VALID,918.03,VALID,0,VALID,94.9801,VALID,51.3569,VALID,18.4369,VALID,121,VALID,0,
2014-04-14, 06:53:04,VALID,918.055,VALID,0,VALID,95.0564,VALID,55.5471,VALID,18.4759,VALID,121,VALID,0,
2014-04-14, 06:54:04,VALID,918.1,VALID,0,VALID,95.0411,VALID,60.2745,VALID,18.494,VALID,121,VALID,0,
2014-04-14, 06:55:04,VALID,918.131,VALID,0,VALID,95.0564,VALID,66.1837,VALID,18.5525,VALID,121,VALID,0,
2014-04-14, 06:56:04,VALID,918.208,VALID,0,VALID,95.0869,VALID,70.9112,VALID,18.6109,VALID,121,VALID,0,
2014-04-14, 06:57:04,VALID,918.244,VALID,0,VALID,95.003,VALID,75.5311,VALID,18.6513,VALID,121,VALID,0.566016,
2014-04-14, 06:58:04,VALID,918.28,VALID,0,VALID,94.942,VALID,79.1841,VALID,18.6694,VALID,121,VALID,0.621484,
2014-04-14, 06:59:04,VALID,918.338,VALID,0,VALID,94.8658,VALID,85.0934,VALID,18.7279,VALID,121,VALID,0.536719,
2014-04-14, 07:00:04,VALID,918.361,VALID,0,VALID,94.7667,VALID,91.8622,VALID,18.7669,VALID,121,VALID,0.599609,
2014-04-14, 07:01:04,VALID,918.386,VALID,0,VALID,94.7057,VALID,95.3003,VALID,18.7864,VALID,121,VALID,0.644141,
2014-04-14, 07:02:04,VALID,918.41,VALID,0,VALID,94.5837,VALID,100.78,VALID,18.8463,VALID,121,VALID,0.573438,
2014-04-14, 07:03:04,VALID,918.445,VALID,0,VALID,94.4617,VALID,107.226,VALID,18.8839,VALID,121,VALID,0.642578,
2014-04-14, 07:04:04,VALID,918.458,VALID,0,VALID,94.2864,VALID,110.127,VALID,18.9424,VALID,122,VALID,0.639844,
2014-04-14, 07:05:04,VALID,918.433,VALID,0,VALID,94.1339,VALID,116.896,VALID,19.0008,VALID,122,VALID,0.686719,
2014-04-14, 07:06:04,VALID,918.432,VALID,0,VALID,93.9738,VALID,124.632,VALID,19.0593,VALID,122,VALID,0.659375,
2014-04-14, 07:07:04,VALID,918.449,VALID,0,VALID,93.8519,VALID,131.723,VALID,19.1178,VALID,122,VALID,0.780078,
2014-04-14, 07:08:04,VALID,918.444,VALID,0,VALID,93.5393,VALID,136.02,VALID,19.1568,VALID,140,VALID,0.996094,
2014-04-14, 07:09:04,VALID,918.45,VALID,0,VALID,93.364,VALID,140.64,VALID,19.2348,VALID,140,VALID,0.769922,
2014-04-14, 07:10:04,VALID,918.473,VALID,0,VALID,93.1963,VALID,142.682,VALID,19.3128,VALID,140,VALID,0.683594,
2014-04-14, 07:11:04,VALID,918.488,VALID,0,VALID,93.0362,VALID,143.326,VALID,19.4103,VALID,140,VALID,0.642969,
2014-04-14, 07:12:04,VALID,918.519,VALID,0,VALID,92.716,VALID,146.013,VALID,19.5078,VALID,140,VALID,0.620703,
2014-04-14, 07:13:04,VALID,918.542,VALID,0,VALID,92.3348,VALID,148.484,VALID,19.5858,VALID,140,VALID,0.578125,
2014-04-14, 07:14:04,VALID,918.573,VALID,0,VALID,91.8469,VALID,151.492,VALID,19.6833,VALID,140,VALID,0.701172,
2014-04-14, 07:15:04,VALID,918.594,VALID,0,VALID,91.1227,VALID,149.451,VALID,19.7433,VALID,140,VALID,1.03437,
2014-04-14, 07:16:04,VALID,918.632,VALID,0,VALID,90.429,VALID,141.393,VALID,19.8408,VALID,140,VALID,0.809375,
2014-04-14, 07:17:04,VALID,918.638,VALID,0,VALID,89.7962,VALID,136.558,VALID,19.8993,VALID,140,VALID,0.828516,
2014-04-14, 07:18:04,VALID,918.662,VALID,0,VALID,89.3541,VALID,136.02,VALID,19.9578,VALID,140,VALID,0.857813,
2014-04-14, 07:19:04,VALID,918.647,VALID,0,VALID,88.9805,VALID,134.839,VALID,19.9968,VALID,140,VALID,0.741797,
2014-04-14, 07:20:04,VALID,918.681,VALID,0,VALID,88.9653,VALID,141.07,VALID,20.0749,VALID,140,VALID,0.625,
2014-04-14, 07:21:04,VALID,918.696,VALID,0,VALID,89.0872,VALID,141.393,VALID,20.1334,VALID,140,VALID,0.817187,
2014-04-14, 07:22:04,VALID,918.694,VALID,0,VALID,89.4837,VALID,145.69,VALID,20.1318,VALID,139,VALID,0.796875,
2014-04-14, 07:23:04,VALID,918.72,VALID,0,VALID,89.5599,VALID,142.574,VALID,20.1513,VALID,136,VALID,0.935547,
2014-04-14, 07:24:04,VALID,918.726,VALID,0,VALID,89.5904,VALID,144.079,VALID,20.1513,VALID,137,VALID,0.646484,
2014-04-14, 07:25:04,VALID,918.744,VALID,0,VALID,89.8572,VALID,147.409,VALID,20.1708,VALID,137,VALID,0.877734,
2014-04-14, 07:26:04,VALID,918.765,VALID,0,VALID,90.307,VALID,146.335,VALID,20.2098,VALID,137,VALID,0.232422,
2014-04-14, 07:27:04,VALID,918.786,VALID,0,VALID,89.9639,VALID,143.541,VALID,20.2894,VALID,127,VALID,1.02656,
2014-04-14, 07:28:04,VALID,918.777,VALID,0,VALID,89.9106,VALID,138.921,VALID,20.2879,VALID,127,VALID,0.732031,
2014-04-14, 07:29:04,VALID,918.824,VALID,0,VALID,90.2308,VALID,136.343,VALID,20.3269,VALID,113,VALID,0.869922,
2014-04-14, 07:30:04,VALID,918.852,VALID,0,VALID,90.3985,VALID,131.938,VALID,20.3659,VALID,113,VALID,0.321094,
2014-04-14, 07:31:04,VALID,918.839,VALID,0,VALID,89.5523,VALID,129.037,VALID,20.3464,VALID,120,VALID,0.757422,
2014-04-14, 07:32:04,VALID,918.826,VALID,0,VALID,89.4227,VALID,123.235,VALID,20.3074,VALID,121,VALID,0.655859,
2014-04-14, 07:33:04,VALID,918.87,VALID,0,VALID,89.598,VALID,120.227,VALID,20.2879,VALID,121,VALID,0.557422,
2014-04-14, 07:34:04,VALID,918.877,VALID,0,VALID,89.8648,VALID,120.012,VALID,20.2668,VALID,121,VALID,0.130078,
2014-04-14, 07:35:04,VALID,918.85,VALID,0,VALID,89.7886,VALID,123.02,VALID,20.3659,VALID,120,VALID,0.590625,
2014-04-14, 07:36:04,VALID,918.863,VALID,0,VALID,89.5751,VALID,123.772,VALID,20.4049,VALID,120,VALID,0.667188,
2014-04-14, 07:37:04,VALID,918.852,VALID,0,VALID,89.5065,VALID,122.161,VALID,20.3838,VALID,109,VALID,0.854688,
2014-04-14, 07:38:04,VALID,918.856,VALID,0,VALID,89.072,VALID,124.309,VALID,20.3448,VALID,108,VALID,0.969922,
2014-04-14, 07:39:04,VALID,918.879,VALID,0,VALID,89.3388,VALID,127.855,VALID,20.3253,VALID,108,VALID,0.634375,
2014-04-14, 07:40:04,VALID,918.908,VALID,0,VALID,89.6133,VALID,128.07,VALID,20.3464,VALID,108,VALID,0.475,
2014-04-14, 07:41:04,VALID,918.958,VALID,0,VALID,89.8725,VALID,128.177,VALID,20.3643,VALID,116,VALID,0.671484,
2014-04-14, 07:42:04,VALID,918.955,VALID,0,VALID,89.9563,VALID,128.822,VALID,20.4033,VALID,119,VALID,0.510547,
2014-04-14, 07:43:04,VALID,919.011,VALID,0,VALID,89.9029,VALID,128.392,VALID,20.4618,VALID,119,VALID,0.619531,
2014-04-14, 07:44:04,VALID,919.033,VALID,0,VALID,89.5904,VALID,130.541,VALID,20.5009,VALID,126,VALID,0.735156,
2014-04-14, 07:45:04,VALID,919.08,VALID,0,VALID,89.2016,VALID,137.847,VALID,20.5594,VALID,127,VALID,0.574609,
2014-04-14, 07:46:04,VALID,919.065,VALID,0,VALID,88.5612,VALID,144.723,VALID,20.5789,VALID,127,VALID,0.619922,
2014-04-14, 07:47:04,VALID,919.091,VALID,0,VALID,88.7594,VALID,139.996,VALID,20.6374,VALID,127,VALID,0.316797,
2014-04-14, 07:48:04,VALID,919.074,VALID,0,VALID,88.1801,VALID,136.665,VALID,20.7349,VALID,127,VALID,0.506641,
2014-04-14, 07:49:04,VALID,919.091,VALID,0,VALID,88.1267,VALID,134.516,VALID,20.7934,VALID,127,VALID,0.587891,
2014-04-14, 07:50:04,VALID,919.105,VALID,0,VALID,88.5384,VALID,136.343,VALID,20.8714,VALID,127,VALID,0.401953,
2014-04-14, 07:51:04,VALID,919.143,VALID,0,VALID,88.3935,VALID,139.673,VALID,20.9495,VALID,127,VALID,0.0277344,
2014-04-14, 07:52:04,VALID,919.143,VALID,0,VALID,87.5244,VALID,146.013,VALID,21.0681,VALID,127,VALID,0.389453,
2014-04-14, 07:53:04,VALID,919.189,VALID,0,VALID,87.0289,VALID,141.5,VALID,21.1836,VALID,127,VALID,0.190625,
2014-04-14, 07:54:04,VALID,919.186,VALID,0,VALID,86.7164,VALID,134.946,VALID,21.3022,VALID,127,VALID,0.504297,
2014-04-14, 07:55:04,VALID,919.224,VALID,0,VALID,86.0455,VALID,133.012,VALID,21.3006,VALID,127,VALID,0.453516,
2014-04-14, 07:56:04,VALID,919.236,VALID,0,VALID,85.5424,VALID,133.657,VALID,21.3396,VALID,110,VALID,0.550391,
2014-04-14, 07:57:04,VALID,919.259,VALID,0,VALID,85.9464,VALID,133.979,VALID,21.3591,VALID,110,VALID,0.598047,
2014-04-14, 07:58:04,VALID,919.23,VALID,0,VALID,85.8168,VALID,135.913,VALID,21.3412,VALID,104,VALID,0.882813,
2014-04-14, 07:59:04,VALID,919.217,VALID,0,VALID,86.5715,VALID,141.285,VALID,21.2811,VALID,103,VALID,0.483594,
2014-04-14, 08:00:04,VALID,919.192,VALID,0,VALID,86.5486,VALID,146.765,VALID,21.2632,VALID,103,VALID,0.78125,
2014-04-14, 08:01:04,VALID,919.137,VALID,0,VALID,86.8002,VALID,147.087,VALID,21.2421,VALID,107,VALID,0.719922,
2014-04-14, 08:02:04,VALID,919.165,VALID,0,VALID,86.1141,VALID,150.632,VALID,21.2031,VALID,112,VALID,0.991797,
2014-04-14, 08:03:04,VALID,919.182,VALID,0,VALID,86.8155,VALID,147.409,VALID,21.2437,VALID,116,VALID,0.535156,
2014-04-14, 08:04:04,VALID,919.192,VALID,0,VALID,85.893,VALID,143.541,VALID,21.2242,VALID,121,VALID,0.761719,
2014-04-14, 08:05:04,VALID,919.187,VALID,0,VALID,85.9769,VALID,140.963,VALID,21.2242,VALID,127,VALID,0.751953,
2014-04-14, 08:06:04,VALID,919.219,VALID,0,VALID,86.2132,VALID,139.244,VALID,21.2827,VALID,127,VALID,0.55,
2014-04-14, 08:07:04,VALID,919.235,VALID,0,VALID,86.2056,VALID,139.888,VALID,21.3022,VALID,127,VALID,0.603906,
2014-04-14, 08:08:04,VALID,919.233,VALID,0,VALID,86.2894,VALID,141.5,VALID,21.2811,VALID,129,VALID,0.442969,
2014-04-14, 08:09:04,VALID,919.221,VALID,0,VALID,86.3885,VALID,151.062,VALID,21.3412,VALID,145,VALID,0.657422,
2014-04-14, 08:10:04,VALID,919.203,VALID,0,VALID,86.0379,VALID,160.195,VALID,21.3396,VALID,145,VALID,0.733984,
2014-04-14, 08:11:04,VALID,919.242,VALID,0,VALID,85.1993,VALID,163.955,VALID,21.1445,VALID,153,VALID,1.01406,
2014-04-14, 08:12:04,VALID,919.237,VALID,0,VALID,85.3441,VALID,176.418,VALID,21.0291,VALID,154,VALID,0.795703,
2014-04-14, 08:13:04,VALID,919.22,VALID,0,VALID,86.0912,VALID,200.808,VALID,20.9901,VALID,154,VALID,0.783984,
2014-04-14, 08:14:04,VALID,919.276,VALID,0,VALID,86.137,VALID,212.089,VALID,20.9885,VALID,152,VALID,0.748438,
2014-04-14, 08:15:04,VALID,919.263,VALID,0,VALID,86.4648,VALID,243.247,VALID,21.0291,VALID,153,VALID,0.307031,
2014-04-14, 08:16:04,VALID,919.268,VALID,0,VALID,86.5182,VALID,277.413,VALID,21.1461,VALID,153,VALID,0.742188,
2014-04-14, 08:17:04,VALID,919.292,VALID,0,VALID,85.9693,VALID,294.066,VALID,21.1836,VALID,151,VALID,0.784766,
2014-04-14, 08:18:04,VALID,919.325,VALID,0,VALID,86.1446,VALID,309.86,VALID,21.2827,VALID,149,VALID,0.602734,
2014-04-14, 08:19:04,VALID,919.344,VALID,0,VALID,85.0468,VALID,335.539,VALID,21.3608,VALID,148,VALID,0.7625,
2014-04-14, 08:20:04,VALID,919.334,VALID,0,VALID,84.6199,VALID,345.638,VALID,21.3998,VALID,141,VALID,0.745703,
2014-04-14, 08:21:04,VALID,919.362,VALID,0,VALID,82.6455,VALID,352.514,VALID,21.4193,VALID,142,VALID,1.17188,
2014-04-14, 08:22:04,VALID,919.355,VALID,0,VALID,82.7446,VALID,350.58,VALID,21.4762,VALID,147,VALID,1.12617,
2014-04-14, 08:23:04,VALID,919.35,VALID,0,VALID,82.6988,VALID,343.919,VALID,21.5949,VALID,152,VALID,0.644922,
2014-04-14, 08:24:04,VALID,919.341,VALID,0,VALID,82.0508,VALID,340.266,VALID,21.7688,VALID,153,VALID,0.737109,
2014-04-14, 08:25:04,VALID,919.35,VALID,0,VALID,82.3863,VALID,338.762,VALID,21.9266,VALID,142,VALID,0.736328,
2014-04-14, 08:26:04,VALID,919.368,VALID,0,VALID,81.4105,VALID,343.597,VALID,21.9835,VALID,147,VALID,0.821094,
2014-04-14, 08:27:04,VALID,919.359,VALID,0,VALID,80.5643,VALID,342.415,VALID,22.081,VALID,146,VALID,0.852734,
2014-04-14, 08:28:04,VALID,919.361,VALID,0,VALID,79.0853,VALID,325.547,VALID,22.1201,VALID,153,VALID,1.12266,
2014-04-14, 08:29:04,VALID,919.375,VALID,0,VALID,79.0548,VALID,334.894,VALID,22.1005,VALID,154,VALID,1.01172,
2014-04-14, 08:30:04,VALID,919.38,VALID,0,VALID,79.5732,VALID,282.893,VALID,22.1005,VALID,159,VALID,0.983203,
2014-04-14, 08:31:04,VALID,919.355,VALID,0,VALID,79.0243,VALID,295.571,VALID,22.0615,VALID,156,VALID,0.940234,
2014-04-14, 08:32:04,VALID,919.341,VALID,0,VALID,79.3445,VALID,268.603,VALID,22.1396,VALID,162,VALID,0.785547,
2014-04-14, 08:33:04,VALID,919.351,VALID,0,VALID,78.8947,VALID,255.817,VALID,22.1591,VALID,167,VALID,1.13945,
2014-04-14, 08:34:04,VALID,919.315,VALID,0,VALID,80.0916,VALID,280.529,VALID,22.1786,VALID,158,VALID,0.502734,
2014-04-14, 08:35:04,VALID,919.33,VALID,0,VALID,80.5566,VALID,301.158,VALID,22.2745,VALID,153,VALID,0.676172,
2014-04-14, 08:36:04,VALID,919.325,VALID,0,VALID,78.4831,VALID,314.695,VALID,22.3525,VALID,148,VALID,0.709766,
2014-04-14, 08:37:04,VALID,919.323,VALID,0,VALID,78.666,VALID,365.192,VALID,22.4128,VALID,148,VALID,0.678125,
2014-04-14, 08:38:04,VALID,919.322,VALID,0,VALID,78.0104,VALID,424.07,VALID,22.4518,VALID,148,VALID,0.607813,
2014-04-14, 08:39:04,VALID,919.344,VALID,0,VALID,79.7333,VALID,443.947,VALID,22.6062,VALID,148,VALID,0.460547,
2014-04-14, 08:40:04,VALID,919.331,VALID,0,VALID,77.8046,VALID,441.153,VALID,22.8794,VALID,148,VALID,0.319922,
2014-04-14, 08:41:04,VALID,919.331,VALID,0,VALID,76.6077,VALID,438.79,VALID,23.1349,VALID,137,VALID,0.978125,
2014-04-14, 08:42:04,VALID,919.337,VALID,0,VALID,76.8593,VALID,452.542,VALID,23.0959,VALID,102,VALID,1.44687,
2014-04-14, 08:43:04,VALID,919.333,VALID,0,VALID,76.5848,VALID,473.171,VALID,23.0178,VALID,92,VALID,0.800391,
2014-04-14, 08:44:04,VALID,919.319,VALID,0,VALID,76.7144,VALID,478.543,VALID,23.0178,VALID,85,VALID,0.722656,
2014-04-14, 08:45:04,VALID,919.335,VALID,0,VALID,78.8642,VALID,444.699,VALID,23.1739,VALID,104,VALID,0.287891,
2014-04-14, 08:46:04,VALID,919.338,VALID,0,VALID,77.0117,VALID,371.531,VALID,23.3887,VALID,112,VALID,0.887109,
2014-04-14, 08:47:04,VALID,919.365,VALID,0,VALID,75.4718,VALID,309.968,VALID,23.4667,VALID,155,VALID,0.785156,
2014-04-14, 08:48:04,VALID,919.377,VALID,0,VALID,75.9216,VALID,275.372,VALID,23.5253,VALID,155,VALID,0.487891,
2014-04-14, 08:49:04,VALID,919.428,VALID,0,VALID,76.5162,VALID,256.784,VALID,23.5448,VALID,155,VALID,0.928516,
2014-04-14, 08:50:04,VALID,919.413,VALID,0,VALID,76.501,VALID,245.933,VALID,23.5643,VALID,155,VALID,0.55,
2014-04-14, 08:51:04,VALID,919.446,VALID,0,VALID,76.4247,VALID,230.998,VALID,23.6016,VALID,155,VALID,0.0484375,
2014-04-14, 08:52:04,VALID,919.462,VALID,0,VALID,76.7144,VALID,221.651,VALID,23.5821,VALID,155,VALID,0.560547,
2014-04-14, 08:53:04,VALID,919.464,VALID,0,VALID,75.8377,VALID,222.188,VALID,23.543,VALID,155,VALID,0.739844,
2014-04-14, 08:54:04,VALID,919.471,VALID,0,VALID,76.379,VALID,227.775,VALID,23.4454,VALID,155,VALID,0.379297,
2014-04-14, 08:55:04,VALID,919.482,VALID,0,VALID,75.8911,VALID,235.189,VALID,23.3869,VALID,155,VALID,0.919141,
2014-04-14, 08:56:04,VALID,919.481,VALID,0,VALID,75.4794,VALID,243.032,VALID,23.3283,VALID,155,VALID,0.890625,
2014-04-14, 08:57:04,VALID,919.477,VALID,0,VALID,76.0131,VALID,251.842,VALID,23.3301,VALID,155,VALID,0.789063,
2014-04-14, 08:58:04,VALID,919.485,VALID,0,VALID,75.5404,VALID,263.231,VALID,23.2893,VALID,155,VALID,0.710156,
2014-04-14, 08:59:04,VALID,919.497,VALID,0,VALID,75.7234,VALID,278.273,VALID,23.2893,VALID,155,VALID,0.476172,
2014-04-14, 09:00:04,VALID,919.493,VALID,0,VALID,75.6395,VALID,294.174,VALID,23.2911,VALID,155,VALID,0.369141,
2014-04-14, 09:01:04,VALID,919.533,VALID,0,VALID,76.2037,VALID,307.067,VALID,23.3088,VALID,154,VALID,0.503906,
2014-04-14, 09:02:04,VALID,919.542,VALID,0,VALID,75.4718,VALID,312.869,VALID,23.3674,VALID,154,VALID,0.787891,
2014-04-14, 09:03:04,VALID,919.55,VALID,0,VALID,75.1974,VALID,307.282,VALID,23.3283,VALID,154,VALID,0.223828,
2014-04-14, 09:04:04,VALID,919.612,VALID,0,VALID,76.7525,VALID,304.596,VALID,23.3478,VALID,154,VALID,0.194922,
2014-04-14, 09:05:04,VALID,919.632,VALID,0,VALID,76.2265,VALID,313.728,VALID,23.465,VALID,154,VALID,0.0472656,
2014-04-14, 09:06:04,VALID,919.646,VALID,0,VALID,75.9368,VALID,338.655,VALID,23.6229,VALID,148,VALID,0.492188,
2014-04-14, 09:07:04,VALID,919.664,VALID,0,VALID,75.0297,VALID,364.44,VALID,23.6602,VALID,148,VALID,0.366406,
2014-04-14, 09:08:04,VALID,919.696,VALID,0,VALID,74.679,VALID,379.804,VALID,23.7382,VALID,148,VALID,0.419531,
2014-04-14, 09:09:04,VALID,919.698,VALID,0,VALID,74.7476,VALID,420.417,VALID,23.8554,VALID,148,VALID,0.275391,
2014-04-14, 09:10:04,VALID,919.678,VALID,0,VALID,74.3817,VALID,493.8,VALID,24.0506,VALID,148,VALID,0.178906,
2014-04-14, 09:11:04,VALID,919.653,VALID,0,VALID,73.627,VALID,542.47,VALID,24.3063,VALID,148,VALID,0.187891,
2014-04-14, 09:12:04,VALID,919.713,VALID,0,VALID,73.2382,VALID,518.081,VALID,24.5192,VALID,105,VALID,0.804688,
2014-04-14, 09:13:04,VALID,919.664,VALID,0,VALID,73.0247,VALID,470.162,VALID,24.5387,VALID,55,VALID,0.608203,
2014-04-14, 09:14:04,VALID,919.672,VALID,0,VALID,72.6893,VALID,447.17,VALID,24.4801,VALID,55,VALID,0.985156,
2014-04-14, 09:15:04,VALID,919.675,VALID,0,VALID,73.566,VALID,376.259,VALID,24.2263,VALID,55,VALID,0.552344,
2014-04-14, 09:16:04,VALID,919.71,VALID,0,VALID,73.8633,VALID,322.431,VALID,24.1873,VALID,55,VALID,0.763672,
2014-04-14, 09:17:04,VALID,919.752,VALID,0,VALID,73.7489,VALID,320.604,VALID,24.0506,VALID,55,VALID,0.6125,
2014-04-14, 09:18:04,VALID,919.737,VALID,0,VALID,74.4732,VALID,375.077,VALID,23.8944,VALID,55,VALID,0.802734,
2014-04-14, 09:19:04,VALID,919.743,VALID,0,VALID,74.7628,VALID,471.989,VALID,23.8554,VALID,187,VALID,1.01523,
2014-04-14, 09:20:04,VALID,919.764,VALID,0,VALID,74.2826,VALID,522.916,VALID,23.8731,VALID,231,VALID,1.13398,
2014-04-14, 09:21:04,VALID,919.764,VALID,0,VALID,74.7476,VALID,552.14,VALID,23.9725,VALID,242,VALID,1.00352,
2014-04-14, 09:22:04,VALID,919.771,VALID,0,VALID,75.2507,VALID,585.662,VALID,23.8731,VALID,242,VALID,1.11836,
2014-04-14, 09:23:04,VALID,919.779,VALID,0,VALID,74.4884,VALID,629.82,VALID,23.9121,VALID,241,VALID,1.38281,
2014-04-14, 09:24:04,VALID,919.749,VALID,0,VALID,75.6319,VALID,658.614,VALID,23.7382,VALID,243,VALID,0.89375,
2014-04-14, 09:25:04,VALID,919.76,VALID,0,VALID,75.5785,VALID,657.97,VALID,23.6779,VALID,248,VALID,1.50195,
2014-04-14, 09:26:04,VALID,919.76,VALID,0,VALID,74.0234,VALID,649.052,VALID,23.6388,VALID,249,VALID,0.815625,
2014-04-14, 09:27:04,VALID,919.764,VALID,0,VALID,76.0359,VALID,646.366,VALID,23.6779,VALID,249,VALID,0.386328,
2014-04-14, 09:28:04,VALID,919.76,VALID,0,VALID,74.3588,VALID,644.002,VALID,23.9121,VALID,249,VALID,0.479688,
2014-04-14, 09:29:04,VALID,919.793,VALID,0,VALID,73.3754,VALID,640.779,VALID,24.244,VALID,249,VALID,1.14063,
2014-04-14, 09:30:04,VALID,919.792,VALID,0,VALID,72.4606,VALID,640.349,VALID,24.5368,VALID,248,VALID,0.644922,
2014-04-14, 09:31:04,VALID,919.815,VALID,0,VALID,69.1749,VALID,641.639,VALID,24.5173,VALID,249,VALID,0.994531,
2014-04-14, 09:32:04,VALID,919.8,VALID,0,VALID,72.4072,VALID,635.085,VALID,24.4978,VALID,248,VALID,1.04961,
2014-04-14, 09:33:04,VALID,919.78,VALID,0,VALID,71.5915,VALID,622.514,VALID,24.4978,VALID,249,VALID,0.603906,
2014-04-14, 09:34:04,VALID,919.801,VALID,0,VALID,71.1036,VALID,634.762,VALID,24.5935,VALID,248,VALID,0.0457031,
2014-04-14, 09:35:04,VALID,919.76,VALID,0,VALID,69.0224,VALID,638.093,VALID,24.8297,VALID,249,VALID,1.0332,
2014-04-14, 09:36:04,VALID,919.782,VALID,0,VALID,64.4179,VALID,625.845,VALID,24.9274,VALID,249,VALID,0.754297,
2014-04-14, 09:37:04,VALID,919.761,VALID,0,VALID,64.6694,VALID,604.142,VALID,25.0445,VALID,249,VALID,1.1707,
2014-04-14, 09:38:04,VALID,919.743,VALID,0,VALID,64.6237,VALID,608.439,VALID,25.2769,VALID,249,VALID,1.31367,
2014-04-14, 09:39:04,VALID,919.763,VALID,0,VALID,64.7609,VALID,633.795,VALID,25.4351,VALID,249,VALID,0.779688,
2014-04-14, 09:40:04,VALID,919.758,VALID,0,VALID,67.3605,VALID,662.697,VALID,25.1831,VALID,249,VALID,1.21602,
2014-04-14, 09:41:04,VALID,919.752,VALID,0,VALID,66.7583,VALID,670.97,VALID,25.0464,VALID,249,VALID,0.75625,
2014-04-14, 09:42:04,VALID,919.76,VALID,0,VALID,61.8259,VALID,681.499,VALID,25.0855,VALID,249,VALID,1.08867,
2014-04-14, 09:43:04,VALID,919.793,VALID,0,VALID,60.7358,VALID,700.839,VALID,25.0836,VALID,249,VALID,0.407422,
2014-04-14, 09:44:04,VALID,919.742,VALID,0,VALID,61.1169,VALID,699.979,VALID,25.1812,VALID,249,VALID,0.145703,
2014-04-14, 09:45:04,VALID,919.765,VALID,0,VALID,60.4232,VALID,628.853,VALID,25.4546,VALID,249,VALID,0.0824219,
2014-04-14, 09:46:04,VALID,919.771,VALID,0,VALID,61.9174,VALID,609.299,VALID,25.7476,VALID,249,VALID,0.410156,
2014-04-14, 09:47:04,VALID,919.756,VALID,0,VALID,61.4981,VALID,550.851,VALID,25.9019,VALID,249,VALID,0.637891,
2014-04-14, 09:48:04,VALID,919.781,VALID,0,VALID,59.7447,VALID,484.989,VALID,26.0601,VALID,249,VALID,0.833203,
2014-04-14, 09:49:04,VALID,919.759,VALID,0,VALID,60.2555,VALID,447.492,VALID,25.9038,VALID,249,VALID,0.732031,
2014-04-14, 09:50:04,VALID,919.752,VALID,0,VALID,61.0102,VALID,435.889,VALID,25.728,VALID,249,VALID,1.05508,
2014-04-14, 09:51:04,VALID,919.746,VALID,0,VALID,61.5438,VALID,417.946,VALID,25.4761,VALID,249,VALID,0.428125,
2014-04-14, 09:52:04,VALID,919.753,VALID,0,VALID,61.3075,VALID,408.061,VALID,25.355,VALID,249,VALID,0.419141,
2014-04-14, 09:53:04,VALID,919.756,VALID,0,VALID,62.1918,VALID,462.319,VALID,25.2984,VALID,248,VALID,0.726172,
2014-04-14, 09:54:04,VALID,919.753,VALID,0,VALID,63.6403,VALID,562.884,VALID,25.2183,VALID,249,VALID,0.605859,
2014-04-14, 09:55:04,VALID,919.715,VALID,0,VALID,63.1448,VALID,621.117,VALID,25.2398,VALID,249,VALID,0.626172,
2014-04-14, 09:56:04,VALID,919.706,VALID,0,VALID,62.1995,VALID,673.226,VALID,25.3179,VALID,249,VALID,0.453125,
2014-04-14, 09:57:04,VALID,919.672,VALID,0,VALID,62.2452,VALID,628.208,VALID,25.357,VALID,249,VALID,0.169141,
2014-04-14, 09:58:04,VALID,919.71,VALID,0,VALID,61.4295,VALID,577.174,VALID,25.5698,VALID,249,VALID,0.622266,
2014-04-14, 09:59:04,VALID,919.744,VALID,0,VALID,61.4752,VALID,521.627,VALID,25.6499,VALID,249,VALID,0.967969,
2014-04-14, 10:00:04,VALID,919.734,VALID,0,VALID,61.0254,VALID,556.33,VALID,25.5327,VALID,242,VALID,1.04375,
2014-04-14, 10:01:04,VALID,919.772,VALID,0,VALID,60.7586,VALID,588.778,VALID,25.3941,VALID,242,VALID,1.0168,
2014-04-14, 10:02:04,VALID,919.767,VALID,0,VALID,62.4968,VALID,618.969,VALID,25.316,VALID,242,VALID,0.428516,
2014-04-14, 10:03:04,VALID,919.79,VALID,0,VALID,63.3048,VALID,631.002,VALID,25.5308,VALID,242,VALID,0.294531,
2014-04-14, 10:04:04,VALID,919.798,VALID,0,VALID,60.2174,VALID,651.845,VALID,25.6499,VALID,242,VALID,0.723828,
2014-04-14, 10:05:04,VALID,919.823,VALID,0,VALID,61.2008,VALID,723.616,VALID,25.6675,VALID,242,VALID,0.633203,
2014-04-14, 10:06:04,VALID,919.826,VALID,0,VALID,59.6532,VALID,204.138,VALID,25.648,VALID,242,VALID,0.525,
2014-04-14, 10:07:04,VALID,919.838,VALID,0,VALID,60.347,VALID,229.602,VALID,25.5503,VALID,242,VALID,0.668359,
2014-04-14, 10:08:04,VALID,919.833,VALID,0,VALID,61.6353,VALID,365.085,VALID,25.5132,VALID,242,VALID,0.727734,
2014-04-14, 10:09:04,VALID,919.852,VALID,0,VALID,62.7178,VALID,640.779,VALID,25.5113,VALID,242,VALID,0.609766,
2014-04-14, 10:10:04,VALID,919.852,VALID,0,VALID,61.4295,VALID,610.588,VALID,25.6675,VALID,249,VALID,1.17891,
2014-04-14, 10:11:04,VALID,919.824,VALID,0,VALID,60.103,VALID,359.82,VALID,25.6675,VALID,249,VALID,1.33633,
2014-04-14, 10:12:04,VALID,919.818,VALID,0,VALID,61.155,VALID,248.082,VALID,25.3746,VALID,249,VALID,1.46484,
2014-04-14, 10:13:04,VALID,919.839,VALID,0,VALID,63.6174,VALID,398.069,VALID,25.0621,VALID,249,VALID,1.16445,
2014-04-14, 10:14:04,VALID,919.823,VALID,0,VALID,62.8398,VALID,792.378,VALID,24.984,VALID,249,VALID,1.09219,
2014-04-14, 10:15:04,VALID,919.824,VALID,0,VALID,63.0075,VALID,771.535,VALID,25.0231,VALID,249,VALID,0.955859,
2014-04-14, 10:16:04,VALID,919.805,VALID,0,VALID,61.0712,VALID,767.774,VALID,25.2183,VALID,249,VALID,0.725781,
2014-04-14, 10:17:04,VALID,919.778,VALID,0,VALID,61.6277,VALID,769.494,VALID,25.4917,VALID,249,VALID,0.711719,
2014-04-14, 10:18:04,VALID,919.805,VALID,0,VALID,61.9479,VALID,775.94,VALID,25.7066,VALID,249,VALID,0.495703,
2014-04-14, 10:19:04,VALID,919.778,VALID,0,VALID,63.3277,VALID,784.643,VALID,25.8433,VALID,249,VALID,1.19844,
2014-04-14, 10:20:04,VALID,919.787,VALID,0,VALID,62.2528,VALID,793.345,VALID,25.8843,VALID,249,VALID,0.811328,
2014-04-14, 10:21:04,VALID,919.822,VALID,0,VALID,61.5591,VALID,801.296,VALID,25.98,VALID,249,VALID,0.504297,
2014-04-14, 10:22:04,VALID,919.836,VALID,0,VALID,62.2604,VALID,813.222,VALID,26.273,VALID,248,VALID,0.784375,
2014-04-14, 10:23:04,VALID,919.809,VALID,0,VALID,61.155,VALID,828.801,VALID,26.4683,VALID,249,VALID,0.916016,